Location: Newark
(16.3678°N, 77.8722°E)
Time: 13:00:26
(UTC+00:00)

S-56A Canister/Altair - Pass Details

Date: 12 December 2019
Orbit: 634 x 2498 km, 38.9° (Epoch: 16 January)

Event Time Altitude Azimuth Distance (km) Brightness Sun altitude
Rises 02:44:57 0° 237° (WSW) 4,753 11.3 20.0°
Reaches altitude 10° 02:47:43 10° 239° (WSW) 3,987 11.0 20.5°
Maximum altitude 02:58:57 77° 324° (NW) 2,231 10.1 22.7°
Drops below altitude 10° 03:13:59 10° 50° (NE) 5,152 12.0 25.7°
Sets 03:18:06 0° 52° (NE) 6,169 12.3 26.5°
